GSAT0225 (GALILEO 29)

Last updated on Mon Dec 15 2025 00:02:41 GMT+0000 (Coordinated Universal Time)

1 59598U 24079A 25347.59531080 -.00000001 00000+0 00000+0 0 9990 2 59598 55.0023 106.2711 0002084 178.8578 264.3288 1.70474970 10158
UTC large
Height (km)
Speed (km/s)
/
Latitude / Longitude
Inclination (degrees)
Orbital Period (minutes)
Azimuth
Elevation
Range (km)
Doppler Factor

Next 0 passes for location: London (51.5072 / 0.1276)

Sorry there are no passes over London.